Location: Castillon
(43.1358°N, 0.8654°E)
Time: 19:48:35
(UTC+00:00)

Cosmos 1844 Rocket - Pass Details

Date: 24 January 2021
Orbit: 825 x 843 km, 71.0° (Epoch: 28 February)

Event Time Altitude Azimuth Distance (km) Brightness Sun altitude
Rises 18:41:41 0° 232° (SW) 3,390 6.9 -18.8°
Reaches altitude 10° 18:44:22 10° 242° (WSW) 2,458 6.2 -19.2°
Maximum altitude 18:49:24 32° 305° (NW) 1,398 4.3 -20.1°
Drops below altitude 10° 18:54:27 10° 8° (N) 2,463 5.0 -21.1°
Enters shadow 18:55:51 - 14° (NNE) 2,935 5.3 -21.3°
